Location: Sobotiste
(48.7170°N, 17.4000°E)
Time: 14:39:57
(UTC+01:00)

PCSat - Visible Passes

Search period start: 08 March 2026 00:00
Search period end: 18 March 2026 00:00
Orbit: 780 x 790 km, 67.1° (Epoch: 8 March)

Date Brightness Start Highest point End Pass type
(mag) Time Alt. Az. Time Alt. Az. Time Alt. Az.
8 Mar 12.0 01:52:17 17° N 01:52:17 17° N 01:53:50 10° NNE visible
8 Mar 11.9 03:32:53 12° NNW 03:34:14 12° NNW 03:36:30 10° N visible
8 Mar 12.0 05:17:55 10° N 05:20:04 12° NNE 05:22:13 10° NE visible
9 Mar 12.2 01:20:35 15° NNE 01:20:35 15° NNE 01:21:34 10° NNE visible
9 Mar 11.8 03:01:11 14° NNW 03:01:28 14° NNW 03:04:14 10° NNE visible
9 Mar 12.1 04:45:35 10° N 04:47:17 11° N 04:48:59 10° NNE visible
10 Mar 12.4 00:48:52 12° NNE 00:48:52 12° NNE 00:49:19 10° NNE visible
10 Mar 11.9 02:29:27 15° NNW 02:29:27 15° NNW 02:32:00 10° NNE visible
10 Mar 12.1 04:13:06 10° NNW 04:14:28 11° N 04:15:52 10° NNE visible
11 Mar 12.0 01:57:43 16° N 01:57:43 16° N 01:59:46 10° NNE visible
11 Mar 12.1 03:40:21 10° NNW 03:41:40 11° N 03:43:00 10° NNE visible
11 Mar 11.9 05:23:54 10° NNW 05:27:21 17° NNE 05:30:48 10° ENE visible
12 Mar 12.1 01:25:57 16° N 01:25:57 16° N 01:27:32 10° NNE visible
12 Mar 12.1 03:07:19 10° NNW 03:08:51 11° N 03:10:24 10° N visible
12 Mar 12.0 04:51:41 10° NNW 04:54:38 15° NNE 04:57:36 10° NE visible
13 Mar 12.2 00:54:10 15° NNE 00:54:10 15° NNE 00:55:17 10° NNE visible
13 Mar 12.1 02:34:45 11° NNW 02:36:04 12° N 02:38:00 10° N visible
13 Mar 12.1 04:19:24 10° NNW 04:21:53 13° NNE 04:24:21 10° NE visible
14 Mar 12.3 00:22:21 13° NNE 00:22:21 13° NNE 00:23:03 10° NNE visible
14 Mar 12.1 02:02:56 13° NNW 02:03:17 13° NNW 02:05:42 10° N visible
14 Mar 12.2 03:47:07 10° N 03:49:06 12° NNE 03:51:05 10° NNE visible
14 Mar 11.6 05:29:49 10° NNW 05:34:22 26° NE 05:38:53 10° E visible
14 Mar 12.4 23:50:31 11° NNE 23:50:31 11° NNE 23:50:47 10° NNE visible
15 Mar 12.1 01:31:06 14° NNW 01:31:06 14° NNW 01:33:26 10° NNE visible
15 Mar 12.3 03:14:43 10° N 03:16:18 11° N 03:17:53 10° NNE visible
15 Mar 11.8 04:57:35 10° NNW 05:01:46 22° NNE 05:05:54 10° E visible
16 Mar 12.1 00:59:13 15° N 00:59:13 15° N 01:01:12 10° NNE visible
16 Mar 12.3 02:42:10 10° NNW 02:43:30 11° N 02:44:50 10° NNE visible
16 Mar 12.0 04:25:21 10° NNW 04:29:06 19° NNE 04:32:50 10° ENE visible
17 Mar 12.2 00:27:17 16° N 00:27:17 16° N 00:28:58 10° NNE visible
17 Mar 12.3 02:09:19 10° NNW 02:10:41 11° N 02:12:03 10° NNE visible
17 Mar 12.1 03:53:07 10° NNW 03:56:24 16° NNE 03:59:41 10° ENE visible
17 Mar 12.2 23:55:16 16° N 23:55:16 16° N 23:56:43 10° NNE visible
